Location: North Richland Hills
(32.8343°N, 97.2289°W)
Time: 05:38:26
(UTC+00:00)

Daily predictions for brighter satellites

Satellite Brightness Start Highest point End
(mag) Time Altitude Azimuth Time Altitude Azimuth Time Altitude Azimuth
SJ-6B 2.9 02:01:26 10° S 02:05:01 69° W 02:08:37 10° NNW
Cosmos 2251 Rocket 3.9 01:59:59 10° SSW 02:05:14 74° WNW 02:10:34 10° NNE
Okean O Rocket 2.6 02:01:48 10° SE 02:05:37 30° ENE 02:09:27 10° N
Cosmos 407 Rocket 4.1 02:01:13 10° SSW 02:06:23 63° WNW 02:11:32 10° N
Cosmos 2195 Rocket 4.5 02:00:46 10° S 02:06:53 85° E 02:13:03 10° N
Centaur AC-119 4.1 02:03:41 10° SSW 02:07:20 32° SSE 02:16:34 10° E
Lacrosse 5 rocket 3.0 02:04:04 10° WNW 02:07:43 29° WSW 02:11:14 10° S
Meteor 1-18 Rocket 4.5 02:02:26 10° S 02:08:19 83° W 02:14:09 10° N
USA 186 2.0 02:05:19 10° SSE 02:08:34 56° ENE 02:11:50 10° N
Cosmos 1666 Rocket 3.5 02:07:27 10° N 02:11:47 68° E 02:16:07 10° SSE
Cosmos 1842 3.8 02:11:41 10° SSE 02:15:01 34° E 02:18:21 10° NNE
CZ-4B R/B 3.2 02:11:18 10° SSE 02:16:32 70° ENE 02:21:49 10° N
Cosmos 1092 Rocket 4.1 02:13:19 10° S 02:19:39 89° E 02:26:02 10° N
Tiangong -0.3 02:18:44 10° NW 02:21:28 26° NNE 02:24:10 10° ENE
CZ-4 R/B 2.1 02:18:44 10° S 02:22:34 53° W 02:26:29 10° NNW
Cosmos 1954 Rocket 4.0 02:18:26 10° S 02:23:41 68° ESE 02:28:55 10° NNE
SPOT 5 4.4 02:22:17 10° ESE 02:25:01 17° ENE 02:27:47 10° NNE
Cosmos 1066 Rocket 4.4 02:21:24 10° S 02:27:15 83° W 02:33:04 10° N
Cosmos 676 Rocket 4.0 02:30:11 10° S 02:35:27 71° ESE 02:40:45 10° NNE
Resurs 01 Rocket 1.7 02:32:01 10° S 02:36:24 84° WSW 02:40:49 10° NNW
Cosmos 1707 2.7 02:33:18 10° S 02:36:48 51° E 02:40:18 10° NNE
ASTRO E2 2.9 02:36:43 10° SW 02:39:57 38° SSE 02:42:09 17° ESE
Cosmos 2082 Rocket 4.0 02:37:17 10° SW 02:42:29 36° WNW 02:47:42 10° N
PSLV R/B 3.4 02:40:20 13° SSE 02:43:30 80° E 02:47:01 10° N
SL-16 R/B 3.7 02:41:45 10° N 02:46:02 22° ENE 02:49:14 14° E
Cosmos 2369 3.7 02:45:27 10° NNW 02:51:13 85° ENE 02:55:49 16° SSE
ERS-1 Rocket 4.3 02:49:41 17° ESE 02:52:07 23° ENE 02:56:03 10° NNE
Cosmos 1674 3.5 02:49:24 10° SSW 02:52:43 45° W 02:56:03 10° N
Atlas Centaur 2 3.0 02:50:08 10° W 02:58:02 75° S 03:05:10 15° ESE
SL-27 R/B 4.5 02:59:50 10° ENE 02:59:50 10° ENE 02:59:52 10° ENE
Terra 3.3 02:56:42 17° E 02:58:28 21° ENE 03:01:59 10° NNE
CZ-4C R/B 3.3 02:54:20 10° NNE 02:58:28 75° E 03:02:31 10° S
MOS 1-B Rocket 4.3 02:52:22 10° S 02:58:45 69° WSW 03:04:29 10° NNW
Cosmos 1763 Rocket 3.4 02:56:06 10° NNW 03:01:20 89° ENE 03:04:58 20° SSE
CSL-04 Rocket 4.5 03:02:12 10° S 03:07:16 47° W 03:12:23 10° NNW
USA 234 3.4 03:02:37 10° NE 03:09:09 77° NW 03:15:40 10° SW
FALCON 9 R/B 4.2 03:08:41 10° WSW 03:12:37 22° SSW 03:16:38 17° SSE
Cosmos 1400 Rocket 2.6 03:15:07 32° S 03:16:47 67° E 03:20:37 10° NNE
Atlas 2A Centaur Rocket 3.2 03:15:16 10° SW 03:15:54 14° SW 03:15:54 14° SW
IRS-1A Rocket 4.4 03:14:34 28° SE 03:17:21 55° ENE 03:22:43 10° N
ARGOS Delta rocket 3.6 03:15:40 31° SSE 03:17:45 69° ENE 03:22:08 10° N
Cosmos 1441 Rocket 2.9 03:16:46 10° N 03:20:23 73° E 03:21:16 48° SSE
ATLAS CENTAUR R/B 1.3 03:18:54 10° SW 03:22:19 63° WNW 03:25:48 10° NNE
Cosmos 1356 Rocket 3.9 03:22:33 37° ESE 03:22:54 38° E 03:26:48 10° NNE
Okean-O 2.9 03:20:32 23° S 03:23:09 63° WSW 03:27:31 10° NNW
Cosmos 1908 2.9 03:21:25 10° N 03:25:01 86° W 03:25:58 48° S
Cosmos 1980 Rocket 3.6 03:21:04 10° NW 03:26:03 33° WSW 03:30:42 11° SSW
Cosmos 2322 Rocket 3.3 03:23:26 10° N 03:28:23 30° ENE 03:30:11 25° E
SL-08 ROCKET BODY 4.3 03:25:30 19° S 03:30:03 82° E 03:36:08 10° N
Ariane Rocket 3.7 03:29:26 33° ESE 03:30:46 39° ENE 03:35:28 10° N
Meteor 2-10 Rocket 4.1 03:25:46 10° N 03:30:54 41° ENE 03:32:12 35° ESE
Meteor 1-22 Rocket 4.4 03:25:59 10° N 03:31:40 61° E 03:33:59 36° SE
USA 245 3.3 03:32:06 48° ENE 03:32:08 48° ENE 03:35:57 10° N
Cosmos 468 Rocket 4.1 03:29:02 10° NNW 03:34:11 68° WSW 03:36:33 32° S
Cosmos 2228 Rocket 3.1 03:39:24 52° SSE 03:40:18 67° E 03:44:50 10° NNE
Cosmos 2278 3.6 03:35:52 10° NNW 03:41:36 88° ENE 03:43:39 42° SSE
Okean O Rocket 4.0 03:38:48 10° SW 03:41:52 18° W 03:44:56 10° NW
Cosmos 1470 4.3 03:39:10 10° NNW 03:42:24 29° W 03:44:06 20° SW
Cosmos 1241 Rocket 4.3 03:40:31 21° S 03:44:38 66° ESE 03:50:47 10° NNE
BlueWalker 3 4.4 03:48:25 12° NE 03:48:25 12° NE 03:48:47 10° NE
Cosmos 1850 Rocket 4.2 03:40:35 13° SSW 03:45:20 69° WNW 03:50:32 10° N
Cosmos 1869 Rocket 3.7 03:41:03 10° N 03:45:30 74° W 03:46:42 47° SSW
Meteor 1-21 4.2 03:45:53 42° SSE 03:47:46 66° E 03:53:31 10° NNE
MOS 1 Rocket 3.7 03:47:05 47° SE 03:48:24 62° ENE 03:53:41 10° N
Cosmos 540 Rocket 4.4 03:43:45 10° NNW 03:48:34 42° WSW 03:50:55 26° SSW
ATLAS 2AS CENTAUR R/B 3.7 03:45:22 10° N 03:51:19 32° NE 03:53:49 25° E
Cosmos 2219 Rocket 3.9 03:48:34 10° NNE 03:52:27 18° ENE 03:53:40 17° ENE
Cosmos 968 Rocket 3.5 03:55:15 33° SSW 03:57:34 79° WNW 04:02:44 10° NNE
S3M 4.1 03:51:29 10° N 03:57:49 77° W 04:00:27 37° S
Tiangong -0.4 03:55:17 10° WNW 03:57:06 30° W 03:57:06 30° W
SeaSat 1 2.3 03:57:51 61° ESE 03:58:36 73° ENE 04:03:29 10° NNW
Cosmos 2237 4.2 03:53:03 10° NNW 03:58:47 75° WSW 04:00:22 48° S
SL-14 R/B 3.6 03:59:59 55° W 04:00:11 56° W 04:03:55 10° N
Spot 1 4.2 03:56:18 10° NNE 04:00:58 68° ESE 04:01:09 68° ESE
SPOT 3 Rocket 3.4 04:00:42 62° SE 04:01:28 74° ENE 04:06:37 10° N
SPOT 5 4.0 04:01:22 26° SW 04:02:45 32° W 04:06:38 10° NW
Cosmos 1655 Rocket 4.3 04:02:48 27° SSW 04:06:25 68° W 04:12:48 10° N
Landsat 5 3.7 04:05:33 10° NNE 04:08:59 61° NNE 04:08:59 61° NNE
Okean 3 3.7 04:10:42 62° NNE 04:10:42 62° NNE 04:14:13 10° N
Cosmos 1862 Rocket 3.6 04:10:50 73° W 04:10:56 74° W 04:15:20 10° N
Cosmos 1346 Rocket 3.5 04:08:14 10° N 04:11:07 48° NNE 04:11:07 48° NNE
Cosmos 2360 Rocket 2.2 04:12:27 10° NNW 04:18:04 62° ENE 04:18:30 60° E
Cosmos 1244 Rocket 4.4 04:21:10 64° SE 04:21:58 71° E 04:28:13 10° N
Nadezhda 2 Rocket 4.4 04:23:37 63° SE 04:24:28 71° E 04:30:52 10° N
COSMOS 2455 4.0 04:27:48 28° ENE 04:27:48 28° ENE 04:31:12 10° NE
RESURS DK-1 3.2 04:21:54 10° NNW 04:25:03 47° WNW 04:25:03 47° WNW
SJ 16-02 2.1 04:27:07 46° W 04:27:20 46° WNW 04:31:30 10° N
SL-16 R/B 2.9 04:24:56 10° NW 04:30:16 44° WSW 04:31:06 41° SW
ERS-1 Rocket 4.2 04:29:37 29° WSW 04:30:38 31° W 04:35:06 10° NW
Cosmos 2333 Rocket 2.1 04:29:17 10° NNW 04:35:03 81° ENE 04:35:10 80° E
Terra 3.1 04:35:24 30° WSW 04:35:49 31° W 04:39:58 10° NW
CZ-3 Stage 3 4.3 03:46:27 10° W 04:37:50 82° S 04:43:32 35° ESE
Atlas Centaur 2 3.1 04:39:21 10° W 04:47:22 53° SSW 04:47:22 53° SSW
SL-08 R/B 4.3 04:48:33 83° SSW 04:48:47 87° W 04:54:54 10° N
ARIANE 5 R/B 4.3 04:53:07 27° NNE 04:53:07 27° NNE 04:55:30 10° N
Okean 1-7 4.3 04:56:18 38° NW 04:56:18 38° NW 04:59:27 10° N
CZ-4C R/B 3.7 04:58:36 21° NE 04:58:36 21° NE 05:00:22 10° NE
Meteor 1-16 Rocket 4.4 04:51:48 10° NNW 04:57:40 69° W 04:57:40 69° W
Cosmos 2333 4.4 04:57:49 10° NNW 05:03:03 69° WNW 05:03:03 69° WNW
Cosmos 2297 Rocket 3.5 05:14:18 30° NE 05:14:18 30° NE 05:17:24 10° NE
Cosmos 2322 Rocket 3.5 05:07:23 10° NW 05:11:59 30° W 05:11:59 30° W
Cosmos 1745 Rocket 4.3 05:33:30 62° WNW 05:33:30 62° WNW 05:39:34 10° N
Cosmos 2219 Rocket 3.1 05:31:10 10° NNW 05:35:22 44° WNW 05:35:22 44° WNW
COSMOS 2428 3.3 05:34:21 10° NNW 05:38:48 53° N 05:38:48 53° N
USA 281 3.2 05:41:51 78° NW 05:41:51 78° NW 05:47:58 10° NNW
ATLAS 2AS CENTAUR R/B 3.4 05:36:02 10° NW 05:41:14 39° W 05:41:14 39° W
Nadezhda 1 Rocket 4.4 05:43:36 10° NNW 05:48:56 55° WNW 05:48:56 55° WNW
SL-12 R/B(2) 4.2 06:07:20 65° E 06:07:20 65° E 06:15:36 10° NE
COSMOS 2455 4.2 06:10:52 30° WNW 06:11:40 31° WNW 06:16:57 10° N
SL-16 R/B 4.2 06:27:06 10° NNE 06:31:11 20° ENE 06:32:00 19° ENE
CENTAUR R/B 3.0 06:33:07 50° NNE 06:33:07 50° NNE 06:37:56 10° NNE
Cosmos 2227 Rocket 3.1 06:37:22 46° NNW 06:37:22 46° NNW 06:41:32 10° NNE
Cosmos 2237 Rocket 3.1 06:32:14 10° NNW 06:36:08 46° NNW 06:36:08 46° NNW
CZ-4C R/B 4.3 06:43:37 13° NW 06:44:38 14° NW 06:47:12 10° N
Cosmos 2184 Rocket 4.4 06:49:15 61° NNW 06:49:15 61° NNW 06:54:34 10° N
Cosmos 2297 Rocket 4.1 06:56:04 21° WNW 06:56:15 21° WNW 07:00:24 10° NNW
Cosmos 2219 4.0 07:01:34 49° N 07:01:34 49° N 07:05:39 10° NNE
H-2A R/B 4.4 07:01:36 10° N 07:03:04 19° NNW 07:03:04 19° NNW
Cosmos 2154 Rocket 4.4 07:06:21 57° NW 07:06:21 57° NW 07:11:32 10° N
NOSS 3-2 (A) 4.1 07:21:44 42° NNW 07:21:44 42° NNW 07:26:12 10° NNE
SL-8 Rocket 4.4 07:21:49 53° ENE 07:21:49 53° ENE 07:27:17 10° NNE
Resurs 1-4 Rocket 4.1 07:19:00 10° NE 07:22:10 19° E 07:22:10 19° E
NOSS 3-2 (C) 3.9 07:28:54 47° NE 07:28:54 47° NE 07:32:58 10° NNE
Cosmos 2263 Rocket 2.8 07:28:45 50° NNW 07:28:45 50° NNW 07:33:06 10° NNE
Cosmos 1844 Rocket 3.9 07:47:26 31° E 07:47:26 31° E 07:51:52 10° NE
Cosmos 2341 Rocket 4.0 07:56:13 66° WNW 07:56:13 66° WNW 08:02:00 10° N
COBE Rocket 4.4 07:54:34 10° N 07:58:51 62° N 07:58:51 62° N
Cosmos 864 Rocket 4.4 08:02:24 77° WNW 08:02:24 77° WNW 08:08:40 10° N
IDEFIX/ARIANE 42P 2.7 08:03:55 10° NNE 08:08:40 71° NE 08:08:40 71° NE
SL-16 R/B 3.1 08:10:03 10° NNW 08:13:48 37° WNW 08:13:48 37° WNW
MOZ.5/SAFIR/RUBIN 5/SL-8 4.4 08:17:56 51° NNW 08:17:56 51° NNW 08:21:25 10° NNW
CZ-2C R/B 3.4 08:13:48 10° NNE 08:18:58 54° E 08:19:01 54° ESE
CZ-2C R/B 3.3 08:17:59 42° ESE 08:19:10 50° ENE 08:24:19 10° N
Cosmos 1821 Rocket 3.7 08:25:03 75° S 08:25:38 89° W 08:31:47 10° N
CZ-2D R/B 2.0 08:21:31 10° NNE 08:26:50 81° ESE 08:26:55 81° ESE
MSX 3.6 08:22:04 10° N 08:27:48 82° WNW 08:28:10 77° SW
Cosmos 1943 3.6 08:23:41 10° NNW 08:29:14 60° ENE 08:31:17 37° SE
Cosmos 1867 3.6 08:30:15 68° WNW 08:30:18 68° WNW 08:35:45 10° NNE
Cosmos 2218 Rocket 4.4 08:30:27 45° W 08:30:33 45° W 08:36:28 10° N
Cosmos 2228 3.8 08:26:56 10° N 08:30:02 47° NNW 08:30:02 47° NNW
FENGYUN 3A 3.9 08:28:14 10° NNE 08:33:32 58° E 08:34:20 52° SE
USA 238 DEB 3.5 08:32:42 59° W 08:33:32 66° WNW 08:39:59 10° NNE
USA 238 3.4 08:32:45 60° W 08:33:35 67° WNW 08:40:03 10° NNE
H-2A R/B 4.5 08:32:43 10° N 08:35:24 37° NNW 08:35:24 37° NNW
AQUA 4.2 08:35:55 10° NNE 08:40:31 52° E 08:40:58 50° ESE
ADEOS II 2.0 08:41:21 10° NNE 08:46:37 82° ESE 08:47:23 65° S
NPP 4.1 08:41:49 10° N 08:46:55 45° WNW 08:47:11 45° W
ALOS 3.1 08:42:35 10° NNE 08:46:58 42° E 08:47:51 37° SE
ATLAS 5 CENTAUR R/B 3.1 08:56:45 17° ESE 08:56:45 17° ESE 08:58:41 10° ENE
Cosmos 1934 Rocket 4.1 08:59:41 35° S 09:02:32 74° E 09:08:53 10° N
Resurs 1-4 Rocket 2.6 08:57:40 10° N 09:02:36 41° WNW 09:03:13 40° W
Cosmos 1844 3.9 09:01:40 49° WSW 09:02:52 59° WNW 09:08:35 10° NNE
SL-16 R/B 3.0 08:59:19 11° SSE 09:05:16 62° ENE 09:11:25 10° N
Cosmos 921 Rocket 3.2 09:01:28 10° N 09:05:37 63° ENE 09:06:56 40° SE
NOSS 2-2 (C) 4.1 09:07:47 34° ESE 09:07:47 34° ESE 09:10:37 10° NE
Cosmos 2123 Rocket 4.4 09:02:57 10° N 09:09:03 60° E 09:14:25 14° SSE
Cosmos 1606 Rocket 3.4 09:06:03 10° N 09:10:29 88° W 09:11:20 58° S
Meteor 1-28 Rocket 3.3 09:10:16 60° ESE 09:10:36 64° ENE 09:14:07 10° N
Cosmos 2058 3.4 09:10:10 40° SE 09:11:11 52° E 09:15:08 10° NNE
USA 267 3.4 09:16:54 10° NE 09:23:21 66° NW 09:26:45 30° WSW
NOSS 2-3 (E) 4.2 09:22:56 30° SSE 09:23:48 35° ESE 09:27:10 10° NE
Cosmos 1726 Rocket 3.4 09:21:06 10° N 09:25:32 81° W 09:27:08 39° S
Cosmos 1238 Rocket 4.2 09:25:28 10° NNE 09:28:12 27° E 09:30:15 13° SE
NOSS 2-3 (C) 4.0 09:28:26 33° SSE 09:29:25 41° ESE 09:32:52 10° NE
Cosmos 1844 Rocket 3.8 09:29:05 24° W 09:30:47 28° WNW 09:35:31 10° N
METEOR-M 4.5 09:27:20 10° NNE 09:32:37 61° ESE 09:36:24 19° S
Delta 2 Rocket 3.2 09:33:16 26° WNW 09:35:25 84° NNE 09:39:43 10° ESE
SAR-Lupe-1 4.1 09:35:19 10° N 09:38:50 59° WNW 09:39:33 47° SW
SEDSat Delta rocket 2.6 09:39:27 38° WSW 09:40:54 74° S 09:44:56 10° E
Alouette 2 Rocket 4.2 09:41:56 31° SW 09:43:35 42° W 09:47:23 10° N
ASTEX 1 3.9 09:43:47 31° SW 09:45:11 37° W 09:49:41 10° NNW
BREEZE-M DEB (TANK) 3.0 09:45:30 10° WNW 09:48:24 51° SW 09:57:20 10° SSE
Lacrosse 5 3.7 09:50:59 10° S 09:54:54 23° ESE 09:58:50 10° ENE
CZ-2C R/B 2.5 09:50:39 10° NNE 09:55:12 66° ESE 09:59:19 13° S
Cosmos 1544 2.8 09:55:25 38° WNW 09:55:25 38° WNW 09:57:50 10° N
Cosmos 2278 Rocket 3.8 09:50:53 10° SSE 09:55:48 31° ESE 10:00:42 10° NE
Envisat 3.0 09:52:04 10° N 09:57:07 73° WNW 10:00:48 19° SSW
Cosmos 1271 Rocket 3.9 09:55:35 10° SSE 09:58:54 38° E 10:02:15 10° NNE
CZ-2C R/B 4.2 09:59:28 16° W 09:59:40 16° W 10:02:45 10° WNW
Cosmos 1048 Rocket 4.3 09:55:05 10° NNW 10:00:06 47° WSW 10:05:10 10° S
UNK 3.8 09:58:30 13° S 10:02:33 56° W 10:07:03 10° NNW
Cosmos 1862 4.4 10:00:13 10° SSE 10:03:47 40° E 10:07:21 10° NNE
Mugunghwa Rocket 4.2 09:59:07 18° WSW 10:03:51 49° S 10:09:55 10° ESE
Cosmos 1603 4.5 09:59:26 10° NW 10:04:22 30° WSW 10:08:01 16° SSW
Cosmos 1758 Rocket 3.7 10:00:54 11° S 10:05:10 75° E 10:09:35 10° N
CZ-2D R/B 4.3 10:05:17 10° NW 10:06:03 10° WNW 10:06:49 10° WNW
Cosmos 2058 Rocket 3.2 10:02:18 10° NNW 10:06:36 52° W 10:10:19 13° SSW
Cosmos 1153 Rocket 4.5 10:05:01 10° S 10:11:10 90° E 10:17:19 10° N
YAOGAN 6 2.1 10:11:05 10° N 10:14:15 77° WNW 10:16:44 15° SSW
Cosmos 1812 3.9 10:15:45 10° NW 10:18:32 22° W 10:19:50 18° WSW
Cosmos 1607 4.0 10:13:06 10° NW 10:19:15 54° WSW 10:25:16 10° S
USA 276 3.2 10:17:32 15° SSW 10:19:31 32° SE 10:22:09 10° ENE
NOSS 2-2 (E) 3.8 10:21:14 17° WSW 10:23:30 34° WNW 10:26:26 10° N
ALOS 4.1 10:21:05 10° NNW 10:23:45 15° WNW 10:26:09 11° W
Iridium 4 Rocket 4.1 10:20:15 10° NNW 10:24:25 33° W 10:28:48 10° SSW
ADEOS II 4.3 10:25:04 10° WNW 10:25:28 10° WNW 10:25:52 10° WNW
Cosmos 1626 Rocket 4.2 10:22:56 14° SW 10:26:19 37° W 10:30:26 10° NNW
Cosmos 1515 3.6 10:23:56 10° N 10:27:25 78° E 10:30:52 10° S
Cosmos 1378 3.8 10:24:36 10° N 10:27:46 48° E 10:30:55 10° SSE
PAYLOAD A 4.2 10:23:54 10° N 10:29:07 64° WNW 10:34:27 10° SSW
Aurora 2 Rocket 4.3 10:27:02 13° SW 10:31:10 32° SSE 10:37:27 10° ESE
Cosmos 1782 2.8 10:34:26 10° NNW 10:38:11 55° W 10:41:55 10° S
DMSP B5D2-2 4.1 10:34:04 10° S 10:39:18 73° WSW 10:44:35 10° NNW
Cosmos 2346 Rocket 4.4 10:33:54 10° N 10:39:57 81° W 10:46:00 10° S
ATLAS 5 CENTAUR R/B 2.8 10:37:46 10° W 10:40:00 17° NW 10:42:17 10° N
Cosmos 1833 Rocket 3.2 10:43:21 10° NNW 10:48:59 68° ENE 10:54:34 10° SSE
SL-16 R/B 4.0 10:45:21 10° SW 10:49:09 17° W 10:52:58 10° NW
Cosmos 1666 2.4 10:47:21 10° SSW 10:50:45 66° W 10:54:09 10° N
Meteor 1-26 Rocket 4.3 10:46:53 10° N 10:52:18 83° E 10:57:40 10° S
Thor Agena Rocket 4.0 10:47:35 10° N 10:52:36 45° WNW 10:57:33 10° SW
